Weather Roundup
Issued by NWS

Home | Current Version | Previous Version | Text Only | Print | Product List | Glossary On
Versions: 1 2 3 4 5 6 7 8 9 10 11 12 13 14 15 16 17 18 19 20 21 22 23 24 25 26 27 28 29 30 31 32 33 34 35 36 37 38 39 40 41 42 43 44 45 46 47 48 49 50
000
NZUS93 KARX 070110
HRRWXR

CURRENT HOURLY OBSERVATIONS ACROSS
MUCH OF THE UPPER MISSISSIPPI VALLEY
NATIONAL WEATHER SERVICE LA CROSSE WI
800 PM CDT WED MAY 06 2015


...SOUTHEAST MINNESOTA...


CITY           SKY/WX    TMP DP  RH WIND       PRES   REMARKS
ROCHESTER      CLOUDY    66  60  81 SE16G24   29.92S
ROCHESTER/MAYO CLOUDY    68  61  79 SE14      29.91F
WINONA         CLOUDY    64  63  94 SE6       29.94S
AUSTIN         CLOUDY    66  61  82 SE10G17   29.89S
ALBERT LEA     MOCLDY    72  57  60 S14       29.87R
DODGE CENTER   CLOUDY    66  61  82 SE14      29.90S
PRESTON        CLOUDY    65  59  80 S12G20    29.94S
OWATONNA       MOCLDY    70  61  73 SE17      29.87S
FARIBAULT      MOCLDY    72  61  68 SE12G20   29.87S
$$

...ELSEWHERE IN MINNESOTA...


CITY           SKY/WX    TMP DP  RH WIND       PRES   REMARKS
MINNEAPOLIS    CLOUDY    69  61  75 SE15      29.86S
INTNL FALLS    CLOUDY    64  55  72 SE10      29.85F
DULUTH         CLOUDY    57  44  62 E16       29.93S
RED WING       CLOUDY    66  63  88 SE12      29.89F
REDWOOD FALLS  CLOUDY    71  58  63 S18       29.77S
MANKATO        MOCLDY    73  55  53 S17       29.83S
WORTHINGTON    CLOUDY    66  59  77 S13G20    29.78F
FAIRMONT       MOCLDY    72  39  30 S20G28    29.81S
$$

...SOUTHWEST WISCONSIN...


CITY           SKY/WX    TMP DP  RH WIND       PRES   REMARKS
LA CROSSE      LGT RAIN  68  61  78 SE7       29.94F
PRAIRIE DU CHI LGT RAIN  67  59  73 S6        29.97F
BOSCOBEL       CLOUDY    72  58  61 SW9       29.99R
LONE ROCK      MOCLDY    74  57  55 SE8       29.97F
PLATTEVILLE    MOCLDY    69  60  71 SW9       30.01S
FORT MC COY    CLOUDY    73  59  62 SE9       29.96F
CAMP DOUGLAS   CLOUDY    72  66  83 E12       29.97F
VIROQUA        CLOUDY    66  60  81 S8        29.98F
WIS DELLS      PTCLDY    70  60  70 E8        30.00F
$$

...ELSEWHERE IN WISCONSIN...


CITY           SKY/WX    TMP DP  RH WIND       PRES   REMARKS
MILWAUKEE      FOG       47  44  90 NE6       30.10R VSB 1/4
MADISON        MOCLDY    71  61  70 SE10      30.02S
GREEN BAY      PTCLDY    64  56  75 SE8       30.08S HAZE
EAU CLAIRE     RAIN      64  60  87 S12       29.96R
BLACK RVR FLS  CLOUDY    74  57  55 SE10      29.95F
MEDFORD        MOCLDY    67  57  71 SE12      30.01S
WAUSAU         MOCLDY    67  57  70 SE10      30.02S
WIS RAPIDS     MOCLDY    70  56  61 SE8       30.02F
MARSHFIELD     CLOUDY    69  58  67 SE10      30.00F
RICE LAKE      RAIN      68  60  74 S3        29.95S
$$

...NORTHEAST IOWA...


CITY           SKY/WX    TMP DP  RH WIND       PRES   REMARKS
DECORAH        CLOUDY    66  61  82 S12G17    29.94F
MASON CITY     PTCLDY    68  59  73 SE15      29.89R
CHARLES CITY   CLOUDY    68  64  88 SE14G20   29.92R
OELWEIN        CLOUDY    64  63  94 SE16      29.95S
$$

...ELSEWHERE IN IOWA...


CITY           SKY/WX    TMP DP  RH WIND       PRES   REMARKS
DES MOINES     MOCLDY    72  58  61 S14       29.88S
IOWA CITY      CLOUDY    65  62  90 SE6       29.97F
FORT DODGE     PTCLDY    70  55  60 SE9G17    29.86R
$$

...NORTHERN ILLINOIS...


CITY           SKY/WX    TMP DP  RH WIND       PRES   REMARKS
CHICAGO-OHARE  MOCLDY    62  54  74 NE7       30.06S
CHICAGO-MIDWAY MOCLDY    64  54  69 E5        30.06S
MOLINE         PTCLDY    70  59  68 CALM      29.98F
ROCKFORD       MOCLDY    73  56  54 SE7       30.03F
PEORIA         CLEAR     78  52  40 S7        30.00S
$$

NOTE: "FAIR" INDICATES FEW OR NO CLOUDS BELOW 12,000 FEET WITH NO
SIGNIFICANT WEATHER AND/OR OBSTRUCTIONS TO VISIBILITY. WIND
SPEEDS ARE IN MILES-PER-HOUR.



USA.gov is the U.S. government's official web portal to all federal, state and local government web resources and services.